Portada
METAR-TAF:

METAR-TAF

Aeroports :

Fairfield Municipal Airport

Fairfield, Illinois, Estats Units d'Amèrica

latitud: 38-22-43N, longitud: 088-24-46W, altitud: 133 m

Observació

L'informe es va fer fa 24 minuts, a les 08:35 UTC
Vent calma
Temperatura 21°C
Humitat 100%
Pressió 1014 hPa
Visibilitat: 8.0 km
Cel clar
boirina

METAR: KFWC 060835Z AUTO 00000KT 5SM BR CLR 21/21 A2995 RMK AO1 T02110211

Hora: 03:59 (08:59 UTC)


TAF: manca

Observacions i pronòstics meteorològics de més de 4000 aeroports (METAR i TAF).

Les estacions disponibles són els punts grocs i vermells al mapa.

Posi el ratolí al punt desitjat per veure el nom de l'estació.

Feu clic per veure les observacions i els pronòstics meteorològics.

Per canviar el mapa: feu clic els botons verds amb una creu de color negre per apropar; al botó verd amb un guió per allunyar la imatge; o en les fletxes verdes per a mapes adjacents.


METAR-TAF: